Regional Weather Roundup
Issued by NWS Little Rock, AR

Home | Current Version | Previous Version | Text Only | Print | Product List | Glossary Off
Versions: 1 2 3 4 5 6 7 8 9 10 11 12 13 14 15 16 17 18 19 20 21 22 23 24 25 26 27 28 29 30 31 32 33 34 35 36 37 38 39 40 41 42 43 44 45 46 47 48 49 50

000
ASUS44 KLZK 221505
RWRLZK

WEATHER ROUNDUP FOR ARKANSAS
NATIONAL WEATHER SERVICE LITTLE ROCK AR
1000 AM CDT SUN APR 22 2018

NOTE: "FAIR" INDICATES FEW OR NO CLOUDS BELOW 12,000 FEET WITH NO
SIGNIFICANT WEATHER AND/OR OBSTRUCTIONS TO VISIBILITY.

ARZ001-003-010-029-221600-
NORTHWEST ARKANSAS

CITY           SKY/WX    TMP DP  RH WIND       PRES   REMARKS
FAYETTEVILLE   LGT RAIN  50  50 100 W7        29.96S
FORT SMITH     CLOUDY    51  50  96 W13       29.98S
HARRISON       CLOUDY    52  51  97 W6        29.95F
BENTONVILLE    LGT RAIN  52  51  97 NW7       29.97F
ROGERS         LGT RAIN  52  51  97 NW6       29.96S FOG
SILOAM SPGS    LGT RAIN  49  49 100 W9        29.97F FOG
HIGHFILL       CLOUDY    51  51 100 W8        29.96F FOG
SPRINGDALE     CLOUDY    52  52 100 W10       29.97S
$$

ARZ004-005-016-221600-
NORTH CENTRAL ARKANSAS

CITY           SKY/WX    TMP DP  RH WIND       PRES   REMARKS
BATESVILLE     LGT RAIN  57  56  96 E13       29.94F
FLIPPIN        RAIN      53  52  96 NE8       29.96F
MTN HOME       RAIN      52  52 100 NE6       29.95F FOG
$$

ARZ040-041-221600-
WEST CENTRAL ARKANSAS

CITY           SKY/WX    TMP DP  RH WIND       PRES   REMARKS
MENA           CLOUDY    55  54  94 W9        29.98R
MOUNT IDA      CLOUDY    55  55 100 NW6       29.93R
$$

ARZ009-017-025-026-028-221600-
NORTHEAST ARKANSAS

CITY           SKY/WX    TMP DP  RH WIND       PRES   REMARKS
CORNING        FAIR      54  54 100 NE17G24   29.99F FOG
JONESBORO      LGT RAIN  57  57 100 E21G30    29.95S
WALNUT RIDGE   LGT RAIN  56  55  97 E14       29.97R
BLYTHEVILLE    LGT RAIN  56  55  97 E18       30.00F
$$

ARZ022-023-033-042-044-221600-
CENTRAL ARKANSAS

CITY           SKY/WX    TMP DP  RH WIND       PRES   REMARKS
LITTLE ROCK    CLOUDY    61  60  97 SE3       29.92S
N LITTLE ROCK    N/A     59  58  98 CALM      29.88F
JACKSONVILLE   CLOUDY    60  60 100 CALM      29.91S
CONWAY         FOG       57  57 100 W5        29.93S VSB 3/4
SEARCY         CLOUDY    61  61 100 E6        29.93F
HOT SPRINGS    CLOUDY    59  58  96 NW8       29.93S
RUSSELLVILLE   CLOUDY    57  56  96 W9        29.94R
CLINTON        DRIZZLE   59  57  94 VRB3      29.93S
$$

ARZ036-221600-
EAST ARKANSAS

CITY           SKY/WX    TMP DP  RH WIND       PRES   REMARKS
WEST MEMPHIS   RAIN      59 N/A N/A E13G22    29.93F
$$

ARZ050-053-066-070-073-221600-
SOUTHWEST ARKANSAS

CITY           SKY/WX    TMP DP  RH WIND       PRES   REMARKS
ARKADELPHIA    CLOUDY    61  59  93 W7        29.94S
CAMDEN         CLOUDY    61  57  88 W5        29.93S
TEXARKANA      CLOUDY    56  54  93 NW14      29.96S
EL DORADO      CLOUDY    59  59 100 NW7       29.95S
DE QUEEN       CLOUDY    55  52  89 NW12      29.96S
$$

ARZ056-057-069-221600-
SOUTHEAST ARKANSAS

CITY           SKY/WX    TMP DP  RH WIND       PRES   REMARKS
PINE BLUFF     PTSUNNY   62  58  86 SW5       29.92F
STUTTGART      CLOUDY    63  59  87 W3        29.92F
MONTICELLO     CLOUDY    61  59  93 W6        29.92F

$$





USA.gov is the U.S. government's official web portal to all federal, state and local government web resources and services.